Location: Aalen
(48.8330°N, 10.1000°E)
Time: 06:20:47
(UTC+01:00)

BlueWalker 3 - Pass Details

Date: 03 December 2022
Orbit: 499 x 517 km, 53.2° (Epoch: 28 January)

Event Time Altitude Azimuth Distance (km) Brightness Sun altitude
Rises 19:53:11 0° 295° (WNW) 2,627 6.5 -33.4°
Reaches altitude 10° 19:55:23 10° 295° (WNW) 1,734 5.4 -33.8°
Enters shadow 19:55:53 13° 295° (WNW) 1,537 5.0 -33.8°
